Weather reports worldwide

Advertisment
Aeroport de Lannion, France (7118): temperature & dewpoint: 20.03.2019 20:00:00 - 26.03.2019 20:00:00 (CET)Aeroport de Lannion, France (7118): wind speed & gusts: 20.03.2019 20:00:00 - 26.03.2019 20:00:00 (CET)Aeroport de Lannion, France (7118): wind direction: 20.03.2019 20:00:00 - 26.03.2019 20:00:00 (CET)Aeroport de Lannion, France (7118): reduced air pressure: 20.03.2019 20:00:00 - 26.03.2019 20:00:00 (CET)Aeroport de Lannion, France (7118): visibility: 20.03.2019 20:00:00 - 26.03.2019 20:00:00 (CET)Aeroport de Lannion, France (7118): precipitation: 20.03.2019 20:00:00 - 26.03.2019 20:00:00 (CET)
Date & Time tt [°C] td [°C] ff [km/h] ff [kn] fx [km/h] fx [kn] dd ppp [hPa] vv [km] rr [mm]
26.03.2019 20:00:00 8,2 6,3 8 4 15 8 N 1034,5 14 0,0
26.03.2019 19:00:00 9,5 6,2 10 5 18 10 N 1034,5 17 0,0
26.03.2019 18:00:00 10,1 5,7 11 6 17 9 N 1034,5 19 0,0
26.03.2019 17:00:00 11,1 4,1 11 6 18 10 N 1034,6 19 0,0
26.03.2019 16:00:00 11,4 1,9 12 7 21 11 NNE 1035,1 19 0,0
26.03.2019 15:00:00 11,8 4,5 12 7 25 13 NNW 1035,2 20 0,0
26.03.2019 14:00:00 12,0 6,5 12 6 22 12 NNW 1035,6 18 0,0
26.03.2019 13:00:00 11,2 5,7 14 8 24 13 NNW 1035,8 19 0,0
26.03.2019 12:00:00 12,3 6,3 8 4 17 9 N 1036,2 18 0,0
26.03.2019 11:00:00 11,9 4,8 4 2 9 5 NE 1036,4 20 0,0
26.03.2019 10:00:00 9,4 5,9 3 2 6 4 S 1036,3 19 0,0
26.03.2019 09:00:00 5,4 4,5 0 0 6 3 N 1036,3 19 0,2
26.03.2019 08:00:00 0,5 -0,2 3 1 7 4 SSE 1036,1 16 0,0
26.03.2019 07:00:00 -0,8 -1,5 5 3 8 5 SSE 1036,0 14 0,0
26.03.2019 06:00:00 -0,4 -1,1 5 3 9 5 SSE 1036,0 16 0,0
26.03.2019 05:00:00 0,7 -0,2 0 0 5 3 N 1035,7 17 0,0
26.03.2019 04:00:00 0,8 -0,2 2 1 6 4 WNW 1035,6 13 0,0
26.03.2019 03:00:00 2,0 0,5 5 3 8 5 SSE 1035,9 16 0,0
26.03.2019 02:00:00 5,2 2,2 4 2 13 7 E 1036,0 49 0,0
26.03.2019 01:00:00 6,3 3,1 6 3 14 8 NE 1036,0 50 0,0
26.03.2019 00:00:00 6,2 3,4 4 2 14 8 NE 1035,8 20 0,0
25.03.2019 23:00:00 6,4 3,5 4 2 13 7 NE 1035,4 20 0,0
25.03.2019 22:00:00 6,8 3,0 6 3 16 9 NE 1035,2 52 0,0
25.03.2019 21:00:00 6,7 2,8 4 2 16 9 NE 1034,8 52 0,0
25.03.2019 20:00:00 7,4 2,9 7 4 25 14 NE 1034,1 53 0,0
25.03.2019 19:00:00 8,6 2,4 12 6 34 18 NNE 1034,0 19 0,0
25.03.2019 18:00:00 9,3 2,8 17 9 32 18 NNE 1033,6 19 0,0
25.03.2019 17:00:00 9,7 2,3 18 10 36 19 NNE 1033,4 20 0,0
25.03.2019 16:00:00 9,9 2,0 21 11 42 23 NNE 1033,4 20 0,0
25.03.2019 15:00:00 10,6 3,1 19 10 41 22 NNE 1033,5 19 0,0
25.03.2019 14:00:00 10,5 4,4 24 13 40 21 NNE 1033,8 17 0,0
25.03.2019 13:00:00 10,2 5,4 24 13 39 21 NNE 1033,8 15 0,0
25.03.2019 12:00:00 10,4 4,7 24 13 42 23 N 1034,4 19 0,0
25.03.2019 11:00:00 10,7 5,4 25 13 39 21 N 1034,4 20 0,0
25.03.2019 10:00:00 10,0 5,2 25 14 38 20 N 1033,8 18 0,0
25.03.2019 09:00:00 9,8 5,2 18 10 32 17 N 1033,4 19 0,0
25.03.2019 08:00:00 8,6 6,0 14 8 28 15 N 1032,9 18 0,0
25.03.2019 07:00:00 7,2 5,5 9 5 21 11 N 1032,7 19 0,0
25.03.2019 06:00:00 6,9 5,4 9 5 20 11 NNW 1032,5 20 0,0
25.03.2019 05:00:00 6,4 4,6 6 4 20 11 NNW 1032,5 53 0,0
25.03.2019 04:00:00 6,7 4,7 5 3 20 11 N 1032,6 58 0,0
25.03.2019 03:00:00 6,8 4,5 10 5 19 11 N 1032,8 60 0,0
25.03.2019 02:00:00 6,8 3,6 8 5 20 11 N 1033,0 60 0,0
25.03.2019 01:00:00 7,2 4,0 11 6 20 11 N 1033,0 60 0,0
25.03.2019 00:00:00 7,2 4,7 10 5 20 11 NNW 1032,8 59 0,0
24.03.2019 23:00:00 6,8 4,6 9 5 16 8 NNW 1033,0 20 0,0
24.03.2019 22:00:00 6,8 6,1 10 5 16 9 NNW 1033,1 15 0,0
24.03.2019 21:00:00 6,0 4,8 4 2 8 4 WNW 1032,9 9 0,0
24.03.2019 20:00:00 8,0 6,5 5 3 13 7 NNW 1032,6 11 0,0
24.03.2019 19:00:00 9,3 6,7 8 5 20 11 N 1032,3 14 0,0
24.03.2019 18:00:00 10,3 7,0 10 5 24 13 N 1032,1 16 0,0
24.03.2019 17:00:00 11,0 6,5 13 7 24 13 N 1031,8 19 0,0
24.03.2019 16:00:00 11,1 5,4 15 8 24 13 NNE 1031,9 20 0,0
24.03.2019 15:00:00 11,3 7,0 15 8 28 15 N 1032,1 17 0,0
24.03.2019 14:00:00 11,3 6,4 13 7 30 16 NNE 1032,4 19 0,0
24.03.2019 13:00:00 10,8 6,3 18 10 28 15 NNE 1032,3 18 0,0
24.03.2019 12:00:00 10,5 7,2 14 8 28 15 NNE 1032,3 17 0,0
24.03.2019 11:00:00 9,7 8,0 13 7 21 12 N 1032,2 11 0,0
24.03.2019 10:00:00 9,6 8,8 5 3 11 6 ENE 1031,9 7 0,0
24.03.2019 09:00:00 8,9 8,4 7 4 13 7 NNE 1031,7 6 0,0
24.03.2019 08:00:00 8,6 8,2 6 4 12 6 NNE 1031,0 3,0 0,0
24.03.2019 07:00:00 8,3 7,9 4 2 8 4 NE 1030,3 2,1 0,0
24.03.2019 06:00:00 8,0 7,6 2 1 4 2 NNE 1030,2 2,2 0,0
24.03.2019 05:00:00 7,5 7,1 0 0 8 4 N 1030,5 2,0 0,0
24.03.2019 04:00:00 7,7 7,3 5 3 14 7 ENE 1030,4 2,3 0,0
24.03.2019 03:00:00 7,8 7,4 7 4 17 9 E 1030,5 2,2 0,2
24.03.2019 02:00:00 6,9 6,3 6 3 13 7 N 1030,3 1,7 0,0
24.03.2019 01:00:00 7,0 6,3 4 2 12 7 NNE 1030,4 2,5 0,0
24.03.2019 00:00:00 7,8 7,0 7 4 15 8 ENE 1030,5 4,3 0,0
23.03.2019 23:00:00 7,9 7,3 7 4 16 9 ENE 1030,6 4,2 0,0
23.03.2019 22:00:00 7,9 7,1 4 2 13 7 NE 1030,7 2,5 0,0
23.03.2019 21:00:00 8,3 7,4 4 2 13 7 NNE 1030,5 2,8 0,0
23.03.2019 20:00:00 8,9 7,5 6 3 21 11 NE 1030,2 4,1 0,0
23.03.2019 19:00:00 10,0 7,6 8 5 21 12 NNE 1030,1 10 0,0
23.03.2019 18:00:00 11,1 7,6 12 6 29 16 NNE 1029,9 16 0,0
23.03.2019 17:00:00 12,9 5,8 12 7 28 15 NE 1029,7 20 0,0
23.03.2019 16:00:00 13,7 5,8 16 9 30 16 ENE 1029,8 19 0,0
23.03.2019 15:00:00 14,3 6,9 14 7 28 15 E 1029,8 20 0,0
23.03.2019 14:00:00 13,9 7,4 14 8 30 16 E 1030,3 19 0,0
23.03.2019 13:00:00 12,6 7,5 16 9 31 17 E 1030,7 19 0,0
23.03.2019 12:00:00 11,3 8,7 12 6 24 13 E 1031,0 13 0,0
23.03.2019 11:00:00 9,1 8,8 11 6 21 11 E 1031,4 9 0,0
23.03.2019 10:00:00 8,0 7,7 9 5 16 8 ENE 1031,3 2,0 0,0
23.03.2019 09:00:00 7,0 6,7 6 3 15 8 E 1031,1 0,4 0,0
23.03.2019 08:00:00 6,5 6,2 12 7 18 10 ESE 1030,4 0,1 0,2
23.03.2019 07:00:00 6,4 6,0 9 5 16 9 ESE 1030,4 0,1 0,0
23.03.2019 06:00:00 6,5 6,1 2 1 8 4 NE 1030,3 0,5 0,0
23.03.2019 05:00:00 6,4 6,0 5 3 14 7 ENE 1030,3 0,1 0,0
23.03.2019 04:00:00 3,9 3,2 0 0 8 5 N 1029,8 3,8 0,0
23.03.2019 03:00:00 6,2 5,6 6 4 8 4 E 1029,9 3,5 0,0
23.03.2019 02:00:00 6,2 5,5 5 3 7 4 SE 1030,0 4,0 0,0
23.03.2019 01:00:00 6,1 4,9 0 0 6 3 N 1030,2 4,8 0,0
23.03.2019 00:00:00 6,7 5,3 4 2 5 3 ESE 1030,3 7 0,0
22.03.2019 23:00:00 8,8 6,4 0 0 5 3 N 1030,1 13 0,0
22.03.2019 22:00:00 9,4 7,0 4 2 9 5 E 1030,0 16 0,0
22.03.2019 21:00:00 8,9 7,5 2 1 6 3 NNE 1029,6 8 0,0
22.03.2019 20:00:00 9,2 6,6 3 1 11 6 NNE 1029,2 14 0,0
22.03.2019 19:00:00 10,7 6,6 8 4 14 8 N 1028,6 30 0,0
22.03.2019 18:00:00 12,0 6,9 7 4 21 11 NNE 1028,1 20 0,0
22.03.2019 17:00:00 12,4 7,3 14 8 23 12 N 1028,1 20 0,0
22.03.2019 16:00:00 13,8 7,8 11 6 24 13 NNE 1028,1 19 0,0
22.03.2019 15:00:00 13,9 8,3 12 7 19 11 N 1028,3 18 0,0
22.03.2019 14:00:00 14,0 8,4 10 6 18 10 NNE 1028,5 19 0,0
22.03.2019 13:00:00 14,5 9,3 4 2 14 7 WNW 1028,8 16 0,0
22.03.2019 12:00:00 13,6 8,8 4 2 13 7 WNW 1029,2 13 0,0
22.03.2019 11:00:00 13,7 9,5 2 1 5 3 SE 1029,3 15 0,0
22.03.2019 10:00:00 10,0 9,4 5 3 9 5 SE 1029,6 14 0,0
22.03.2019 09:00:00 6,9 6,6 6 4 10 5 SE 1029,7 6 0,0
22.03.2019 08:00:00 5,8 5,4 4 2 6 4 SE 1029,5 5 0,0
22.03.2019 07:00:00 4,8 4,4 3 2 5 3 SE 1029,4 3,8 0,0
22.03.2019 06:00:00 3,1 2,4 0 0 4 2 N 1029,4 0,6 0,0
22.03.2019 05:00:00 4,0 3,4 4 2 6 3 WNW 1029,5 0,8 0,0
22.03.2019 04:00:00 3,5 2,6 3 2 6 3 WNW 1030,1 0,2 0,0
22.03.2019 03:00:00 6,4 5,5 4 2 11 6 ESE 1029,9 13 0,0
22.03.2019 02:00:00 6,5 5,1 7 4 12 7 ESE 1030,2 18 0,0
22.03.2019 01:00:00 8,2 6,7 9 5 12 7 ESE 1030,8 37 0,0
22.03.2019 00:00:00 8,1 6,9 6 3 10 5 E 1031,6 41 0,0
21.03.2019 23:00:00 5,9 4,4 7 4 10 5 ESE 1032,2 41 0,0
21.03.2019 22:00:00 7,9 5,5 4 2 14 8 E 1032,3 49 0,0
21.03.2019 21:00:00 10,0 6,5 7 4 14 8 ENE 1032,2 60 0,0
21.03.2019 20:00:00 10,3 7,0 6 3 14 8 ENE 1032,2 60 0,0
21.03.2019 19:00:00 10,8 7,5 6 3 15 8 E 1032,3 50 0,0
21.03.2019 18:00:00 11,0 8,9 4 2 11 6 NE 1032,2 19 0,0
21.03.2019 17:00:00 10,6 8,9 7 4 14 7 NNE 1032,6 18 0,0
21.03.2019 16:00:00 10,7 8,8 12 7 16 9 N 1033,1 43 0,0
21.03.2019 15:00:00 11,0 8,6 9 5 14 8 NNE 1033,7 57 0,0
21.03.2019 14:00:00 11,2 8,6 7 4 11 6 NNE 1034,6 48 0,0
21.03.2019 13:00:00 11,1 8,5 6 4 11 6 NNE 1035,0 20 0,0
21.03.2019 12:00:00 11,6 8,8 4 2 8 4 NNE 1035,2 38 0,0
21.03.2019 11:00:00 11,5 9,6 0 0 4 2 N 1035,2 20 0,0
21.03.2019 10:00:00 10,7 9,9 0 0 6 3 N 1035,4 16 0,0
21.03.2019 09:00:00 9,9 9,3 0 0 4 2 N 1035,1 12 0,0
21.03.2019 08:00:00 9,4 8,8 2 1 4 2 SE 1035,0 9 0,0
21.03.2019 07:00:00 9,3 8,7 0 0 3 2 N 1034,8 8 0,0
21.03.2019 06:00:00 9,5 8,9 0 0 3 2 N 1034,6 4,5 0,0
21.03.2019 05:00:00 9,4 8,6 0 0 6 4 N 1034,3 10 0,0
21.03.2019 04:00:00 9,5 8,7 4 2 6 4 SSE 1034,4 9 0,0
21.03.2019 03:00:00 9,7 8,9 3 2 6 3 S 1034,8 13 0,0
21.03.2019 02:00:00 9,7 8,8 4 2 6 3 SSW 1035,1 12 0,0
21.03.2019 01:00:00 9,9 9,0 3 2 5 3 SSE 1035,3 14 0,0
21.03.2019 00:00:00 10,0 8,9 2 1 4 2 S 1035,2 20 0,0
20.03.2019 23:00:00 10,2 9,0 0 0 6 4 N 1035,4 20 0,0
20.03.2019 22:00:00 10,2 8,8 0 0 5 3 N 1035,5 46 0,0
20.03.2019 21:00:00 10,4 8,8 3 1 5 3 WNW 1035,2 57 0,0
20.03.2019 20:00:00 10,5 8,8 3 1 10 5 W 1034,8 60 0,0

tt = temperature
td = dewpoint
ff = wind speed
fx = gusts
dd = wind direction
ppp = reduced air pressure
vv = visibility
rr = precipitation

Next stations